Simultaneous Nadir Overpasses (SNOs) Predictions

Prediction of SNOs between AQUA and GOES-15 Satellite Orbit:

Table of predicted SNOs for the next 14.0 days since TLE Epoch: 2/9/2013
Index Date Time (AQUA) AQUA Lat,Lon GOES-15 Lat,Lon Distance(km) Time Diff (sec)
1 02/09/2013 10:50:15 0.70,-138.57 -0.06,-134.90 417.25 80
2 02/11/2013 10:38:02 0.08,-135.60 -0.05,-134.98 71.37 80
3 02/13/2013 10:25:49 -0.56,-132.64 -0.05,-135.06 274.42 80
4 02/13/2013 22:47:13 -0.52,-137.83 0.05,-135.03 318.25 80
5 02/15/2013 22:34:59 0.11,-134.86 0.05,-135.10 27.33 80
6 02/17/2013 22:22:44 0.72,-131.88 0.05,-135.17 372.57 80
7 02/18/2013 10:43:59 0.36,-137.04 -0.04,-135.23 206.52 80
8 02/20/2013 10:31:44 -0.28,-134.07 -0.04,-135.29 138.33 80
9 02/20/2013 22:53:07 -0.82,-139.25 0.03,-135.26 454.59 80
10 02/22/2013 10:19:29 -0.96,-131.10 -0.03,-135.34 482.92 80
11 02/22/2013 22:40:51 -0.19,-136.28 0.02,-135.31 110.03 80




NCC Satellite Simultaneous Nadir Overpasses (SNOs) Prediction Service
